Terug naar catalogus

DELTA 1 DEB

ActiefHEO
NORAD 4841·DEBRIS·🇺🇸 United States

Gelanceerd Jul 4, 1968 vanaf Vandenberg Space Force Base

Loading…

Volgende Passages (komende 24 uur)

TLE

VerouderendSource: Space-Track

Epoch: Aug 31, 2026, 11:34 UTC

1 04841U 68055D   26243.48197500  .00000107  00000-0  20284-3 0  9999
2 04841 120.7191 356.8206 2699373 248.2096 150.3623  9.29294698142432

Volg DELTA 1 DEB in realtime met AllMySat

Download on the App Store